Weather History for Mobridge, SD

Change the Weather History Date:

Friday, December 30, 2011

  Actual Average Record
Temperature  
Mean Temperature 35 °F 16 °F  
Max Temperature 42 °F 26 °F 51 °F (1956)
Min Temperature 27 °F 6 °F -31 °F (1990)
Degree Days  
Heating Degree Days 30 49  
Month to date heating degree days 1169 1400  
Since 1 July heating degree days 2735 3166  
Cooling Degree Days 0 0  
Month to date cooling degree days 0 0  
Year to date cooling degree days 684 644  
Moisture  
Dew Point 30 °F    
Average Humidity 85    
Maximum Humidity 100    
Minimum Humidity 70    
Precipitation  
Precipitation 0.02 in 0.03 in 0.87 in (1931)
Month to date precipitation 0.20 0.42  
Year to date precipitation 19.07 17.85  
Snow  
Snow 0.00 in - - ()
Month to date snowfall 1.2  
Since 1 July snowfall 1.6  
Snow Depth 0.00 in    
Sea Level Pressure  
Sea Level Pressure 29.69 in    
Wind  
Wind Speed 14 mph (North)    
Max Wind Speed 32 mph    
Max Gust Speed 44 mph    
Visibility 10 miles    
Events Rain    
T = Trace of Precipitation, MM = Missing Value Source: NWS Daily Summary

Daily Weather History Graph

Daily Weather History Graph

Search for Another Location

Airport:

Trip Planner

Search our weather history database for the weather conditions in past years. The results will help you decide how hot, cold, wet, or windy it might be!

Date:

Astronomy

Dec. 30, 2011 Rise Set
Actual Time 8:21 AM CST 5:06 PM CST
Civil Twilight 7:47 AM CST 5:40 PM CST
Nautical Twilight 7:10 AM CST 6:18 PM CST
Astronomical Twilight 6:33 AM CST 6:54 PM CST
Moon 11:22 AM CST (12/30) No Moon Set
Length of Visible Light 9h 53m
Length of Day
8h 44m
Waxing Crescent, 36% of the Moon is Illuminated
Dec 30
Waxing Crescent
Jan 1
First Quarter
Jan 9
Full
Jan 16
Last Quarter
Jan 23
New

Hourly Weather History & Observations

Time (CST) Temp. Windchill Dew Point Humidity Pressure Visibility Wind Dir Wind Speed Gust Speed Precip Events Conditions
12:52 AM 42.1 °F 31.9 °F 34.0 °F 73% 29.55 in 10.0 mi NW 26.5 mph 36.8 mph N/A   Overcast
1:32 AM 41.0 °F 30.7 °F 33.8 °F 76% 29.52 in 10.0 mi NW 25.3 mph 36.8 mph N/A   Overcast
1:52 AM 39.9 °F 30.2 °F 34.0 °F 79% 29.57 in 10.0 mi NW 20.7 mph 32.2 mph N/A   Overcast
2:52 AM 39.0 °F 28.5 °F 34.0 °F 82% 29.61 in 9.0 mi NW 23.0 mph 31.1 mph 0.00 in Rain Light Rain
3:52 AM 39.0 °F 28.8 °F 34.0 °F 82% 29.63 in 10.0 mi NW 21.9 mph 29.9 mph 0.01 in   Overcast
4:52 AM 37.9 °F 27.9 °F 36.0 °F 93% 29.65 in 9.0 mi NW 19.6 mph 27.6 mph 0.00 in Rain Light Rain
5:52 AM 37.9 °F 27.3 °F 34.0 °F 86% 29.67 in 10.0 mi NNW 21.9 mph 32.2 mph 0.00 in   Overcast
6:52 AM 37.0 °F 26.2 °F 32.0 °F 82% 29.70 in 10.0 mi NNW 21.9 mph 32.2 mph N/A   Overcast
7:43 AM 35.6 °F 24.8 °F 32.0 °F 87% 29.69 in 10.0 mi NNW 19.6 mph 27.6 mph N/A   Overcast
7:52 AM 35.1 °F 24.5 °F 32.0 °F 89% 29.74 in 10.0 mi NNW 18.4 mph 25.3 mph N/A   Overcast
8:52 AM 34.0 °F 23.8 °F 28.9 °F 82% 29.76 in 10.0 mi North 16.1 mph 24.2 mph 0.01 in   Overcast
9:52 AM 34.0 °F 23.8 °F 28.9 °F 82% 29.77 in 10.0 mi NNW 16.1 mph 26.5 mph N/A   Mostly Cloudy
10:52 AM 34.0 °F 23.8 °F 28.9 °F 82% 29.79 in 10.0 mi NNW 16.1 mph 26.5 mph N/A   Overcast
11:16 AM 33.8 °F 26.4 °F 28.4 °F 81% 29.76 in 9.0 mi North 9.2 mph - N/A   Overcast
11:52 AM 33.1 °F 23.9 °F 28.0 °F 82% 29.79 in 9.0 mi North 12.7 mph - N/A   Overcast
12:52 PM 34.0 °F 27.2 °F 28.9 °F 82% 29.77 in 10.0 mi North 8.1 mph - N/A   Overcast
1:52 PM 36.0 °F 33.3 °F 30.0 °F 79% 29.75 in 10.0 mi Variable 3.5 mph - N/A   Overcast
2:20 PM 37.4 °F 34.9 °F 30.2 °F 75% 29.71 in 10.0 mi NNE 3.5 mph - N/A   Overcast
2:52 PM 37.0 °F 34.5 °F 30.9 °F 79% 29.75 in 10.0 mi North 3.5 mph - N/A   Mostly Cloudy
3:04 PM 37.4 °F 34.9 °F 30.2 °F 75% 29.71 in 10.0 mi East 3.5 mph - N/A   Scattered Clouds
3:52 PM 35.1 °F 28.6 °F 28.9 °F 78% 29.75 in 10.0 mi ESE 8.1 mph - N/A   Clear
4:52 PM 30.0 °F 21.7 °F 27.0 °F 88% 29.75 in 10.0 mi East 9.2 mph - N/A   Clear
5:52 PM 28.0 °F 18.1 °F 26.1 °F 92% 29.72 in 8.0 mi East 11.5 mph - N/A   Clear
6:52 PM 28.9 °F 21.9 °F 28.0 °F 96% 29.70 in 8.0 mi SE 6.9 mph - N/A   Clear
7:52 PM 27.0 °F 18.0 °F 26.1 °F 96% 29.71 in 6.0 mi SE 9.2 mph - N/A   Partly Cloudy
8:52 PM 30.0 °F 21.1 °F 28.0 °F 92% 29.68 in 8.0 mi SE 10.4 mph - N/A   Clear
9:52 PM 30.0 °F 21.7 °F 28.0 °F 92% 29.64 in 9.0 mi SE 9.2 mph - N/A   Partly Cloudy
10:52 PM 30.9 °F 23.5 °F 28.9 °F 92% 29.59 in 10.0 mi SE 8.1 mph - N/A   Clear
11:52 PM 30.9 °F 22.2 °F 28.9 °F 92% 29.57 in 10.0 mi SE 10.4 mph - N/A   Overcast